www.pogodaiklimat.ru

Погода и климат >> Архив погоды >> Беларусь >> Ганцевичи


ПОГОДА в Ганцевичах

  • Прогноз погоды в Ганцевичах
  • Монитор погоды в Ганцевичах

АРХИВ ПОГОДЫ в Ганцевичах

Время (UTC), дата Ветер
(напр.,м/с)
 
Видим.   Явления Облачность Т
(С)
Тd
(С)
f
(%)
Тe
(С)
Тes
(С)
Комфортность P
(гПа)
Po
(гПа)
Тmin
(С)
Tmax
(С)
R
(мм)
R24
(мм)
S
(см)
15 17.04 СВ 4
{10}
20 км ясно +17.2 -0.5 30 +17 +19 1027.0 1008.2
18 17.04 СВ 1 20 км ясно +10.9 0.0 47 +11 +11 1029.0 1009.7 +17.8
21 17.04 СВ 2 10 км н/о +6.7 +0.6 65 +5 +5 1030.0 1010.4
00 18.04 штиль 0 10 км н/о +3.2 -0.4 77 +2 +2 1031.0 1011.2
03 18.04 штиль 0 10 км н/о -0.6 -2.0 90 -2 -2 1032.0 1011.9 -1.4
06 18.04 штиль 0 20 км 9/0
[Ci fib]
+8.2 +0.7 59 +8 +8 1032.0 1012.5 -1.4
09 18.04 С 2 20 км 9/0
[Ci fib]
+16.0 +0.1 34 +16 +16 1031.0 1012.0
12 18.04 С 2 20 км 9/0
[Ci fib]
+18.1 -1.7 26 +19 +19 1029.0 1010.2
15 18.04 С 3
{10}
20 км 3/0 2000 м
[Ac trans Ci fib]
+18.6 -2.9 23 +19 +20 1027.0 1008.3
18 18.04 С 1 20 км ясно +13.6 -2.4 33 +14 +14 1028.0 1008.9 +19.1
21 18.04 штиль 0 10 км н/о +8.3 -4.2 41 +8 +8 1029.0 1009.6
00 19.04 штиль 0 10 км н/о +4.9 -3.4 55 +4 +4 1030.0 1010.3
03 19.04 штиль 0 10 км н/о +2.2 -3.5 66 +2 +2 1031.0 1011.1 +2.2
06 19.04 СВ 1 20 км ясно +9.6 -1.2 47 +10 +15 1032.0 1012.6 +1.9
09 19.04 СВ 2 20 км ясно +14.7 -2.3 31 +15 +27 опасность
простуды
1032.0 1012.9
12 19.04 СВ 3
{10}
20 км ясно +16.3 -5.5 22 +16 +25 1031.0 1012.1
15 19.04 СВ 3 20 км ясно +16.4 -4.8 23 +16 +19 1030.0 1011.1
18 19.04 штиль 0 20 км ясно +9.7 -3.2 40 +10 +10 1030.0 1010.6 +17.1
21 19.04 штиль 0 10 км н/о +3.0 -1.4 73 +2 +2 1030.0 1010.2
00 20.04 штиль 0 10 км н/о 0.0 -3.0 80 -1 -1 1030.0 1010.0
03 20.04 штиль 0 10 км н/о -2.1 -4.1 86 -3 -3 1029.0 1008.8 -2.1
06 20.04 З 1 20 км 9/0
[Ci fib]
+9.4 -2.2 44 +9 +9 1027.0 1007.7 -2.4
09 20.04 З 1 20 км 9/0
[Ci fib]
+17.3 -1.4 28 +18 +18 1026.0 1007.2
12 20.04 С 1 20 км 9/4 1000 м
[Cu hum Ci fib]
+18.8 -3.4 22 +20 +20 1024.0 1005.3
15 20.04 СВ 2 20 км 9/3 1000 м
[Sc diur, vesp Ac trans]
+17.8 -3.6 23 +18 +18 1023.0 1004.3
18 20.04 СЗ 1 20 км 9/0 2000 м
[Ac trans]
+13.9 -2.5 32 +15 +15 1023.0 1004.1 +19.5
21 20.04 штиль 0 10 км н/о +11.5 -0.0 45 +11 +11 1022.0 1002.9
00 21.04 СВ 1 10 км н/о +8.6 +1.0 59 +8 +8 1021.0 1001.7
03 21.04 С 1 10 км н/о +9.6 +1.3 56 +9 +9 1020.0 1000.8 +8.4
06 21.04 СЗ 1 10 км в посл. час ливневой дождь 9/3 600 м
[Cb calv Ac trans]
+8.8 +5.2 78 +8 +8 1020.0 1000.8 +8.4 0.0
09 21.04 штиль 0 6000 м слаб. ливневой дождь 10/10 900 м
[Cb cap]
+9.2 +5.9 80 +9 +9 1021.0 1001.8
12 21.04 ЮЗ 3 10 км {ливн. осадки} 9/4 600 м
[Cb calv Ac trans]
+10.9 +6.4 74 +9 +9 1020.0 1000.9
15 21.04 З 1 6000 м в посл. час ливневой дождь 9/8 930 м
[Cb calv Ac trans]
+8.9 +7.0 88 +8 +8 1021.0 1001.8
18 21.04 В 1 4500 м слаб. ливневой дождь 10/10 750 м
[Cb cap]
+8.2 +7.0 92 +7 +7 1022.0 1002.7 +11.0 3
21 21.04 В 1 10 км н/о +6.6 +6.2 97 +5 +5 1023.0 1003.6
00 22.04 В 1 10 км н/о +4.0 +3.9 99 +2 +2 1024.0 1004.4
03 22.04 штиль 0 10 км н/о +4.1 +2.1 87 +3 +3 1025.0 1005.4 +3.2
06 22.04 В 1 20 км ясно +9.7 +1.1 55 +10 +15 1027.0 1007.7 +3.2 0.3
09 22.04 ЮВ 5-10
{11}
20 км 3/3 1000 м
[Cu hum]
+16.5 -4.1 24 +16 +20 1027.0 1008.1
12 22.04 В 5-10
{11}
20 км 3/3 1000 м
[Cu hum]
+16.9 -5.6 21 +16 +20 1027.0 1008.2
15 22.04 ЮВ 4
{11}
20 км 3/0 2000 м
[Ac trans]
+17.6 -7.0 18 +17 +19 1026.0 1007.2
18 22.04 штиль 0 20 км ясно +10.3 -4.1 36 +10 +10 1028.0 1008.7 +18.5
21 22.04 штиль 0 10 км н/о +4.2 -1.8 65 +4 +4 1029.0 1009.3
00 23.04 штиль 0 10 км н/о +1.0 -1.9 81 0 0 1030.0 1010.0
03 23.04 штиль 0 10 км н/о +0.1 -2.4 83 -1 -1 1031.0 1010.9 -0.5
06 23.04 штиль 0 20 км ясно +9.2 +1.6 59 +9 +15 1031.0 1011.6 -0.7
09 23.04 ЮВ 5
{10}
20 км ясно +18.6 -6.2 18 +18 +25 1030.0 1011.2
12 23.04 ЮВ 6
{12}
10 км ясно +19.9 -5.1 18 +19 +24 1028.0 1009.3
15 23.04 ЮВ 4
{13}
10 км ясно +19.5 -4.7 19 +19 +21 1026.0 1007.4
18 23.04 ЮВ 1
{10}
10 км 3 балла +12.3 -3.9 32 +13 +13 1027.0 1007.9 +20.3
21 23.04 штиль 0 10 км н/о +4.8 -2.1 61 +4 +4 1028.0 1008.3
00 24.04 штиль 0 10 км н/о +2.7 -1.5 74 +2 +2 1028.0 1008.2
03 24.04 штиль 0 10 км н/о +1.0 -3.1 74 0 0 1029.0 1009.1 +0.8
06 24.04 ЮВ 2 10 км ясно +11.3 -1.8 40 +11 +15 1028.0 1008.8 +0.4
09 24.04 ЮВ 6
{12}
10 км ясно +18.9 -2.7 23 +18 +23 1027.0 1008.3

 

Местоположение метеостанции Ганцевичи (Брестская область, Беларусь): широта 52.75 долгота 26.44 высота над уровнем моря 157 м.

В архиве по умолчанию представлена погода в Ганцевичах за последнюю неделю. Архивные данные за месяц целиком и за предыдущие месяцы, начиная с января 2011 года, Вы можете получить, выбрав интересующий диапазон дат из раскрывающегося списка и нажав кнопку "Ввод!".


*Определитесь, кто Вы:
робот инопланетянин человек

Внимание! Время в таблицах - всемирное. Для получения местного времени необходимо прибавить поправку, которая равна 3 ч.

Смотрите также архив погоды в соседних городах и на ближайших метеорологических станциях:

Погода в Барановичах (Брестская область, Беларусь) (53 км)
Погода в Полесской (Брестская область, Беларусь) (53 км)
Погода в Ивацевичах (Брестская область, Беларусь) (73 км)
Погода в Пинске (Брестская область, Беларусь) (75 км)
Погода в Слуцке (Минская область, Беларусь) (81 км)
Погода в Столбцах (Минская область, Беларусь) (83 км)
Погода в Новогрудке (Гродненская область, Беларусь) (102 км)
Погода в Дрогичине (Брестская область, Беларусь) (109 км)
Погода в Житковичах (Гомельская область, Беларусь) (113 км)
Погода в Пружанах (Брестская область, Беларусь) (133 км)

Пояснения к столбцам:

Ветер - указаны скорость ветра в м/с - средняя за 10 мин, порывы в срок и между сроками (в фигурных скобках) и направление, откуда дует ветер: С - северный, СВ - северо-восточный, В - восточный, ЮВ - юго-восточный, Ю - южный, ЮЗ - юго-западный, З - западный, СЗ - северо-западный.
Видимость - горизонтальная дальность видимости в метрах или километрах. При видимости от 1 до 10 км при отсутствии осадков обычно наблюдается дымка, при ухудшении видимости до 1 км и менее - туман. В сухую погоду видимость может ухудшаться дымом, пылью или мглою.
Явления - указаны атмосферные явления, наблюдавшиеся в срок или в последний час перед сроком; фигурными скобками обозначены явления, наблюдавшиеся между сроками (за 1-3 часа до срока); квадратными скобками обозначены град или гололедные отложения с указанием их диаметра в мм.
Облачность - указаны через наклонную черту общая и нижняя облачность в баллах и высота нижней границы облаков в метрах; квадратными скобками обозначены формы облаков: Ci - перистые, Cs - перисто-слоистые, Cc - перисто-кучевые, Ac - высококучевые, As - высокослоистые, Sc - слоисто-кучевые, Ns - слоисто-дождевые, Cu - кучевые, Cb - кучево-дождевые. Подробнее классификацию облаков см. в Атласе облаков (PDF).
T - Температура воздуха - температура, измеренная на высоте 2 м над землей.
Td - Температура точки росы - температура, при понижении до которой содержащийся в воздухе водяной пар достигнет насыщения.
f - Относительная влажность воздуха - влажноcть воздуха, измеренная на высоте 2 м над землей.
Te - Эффективная температура - температура, которую ощущает одетый по сезону человек в тени. Характеристика душности погоды. При расчете учитывается влияние влажности воздуха и скорости ветра на теплоощущения человека.
Tes - Эффективная температура на солнце - температура, которую ощущает человек, с поправкой на солнечный нагрев. Характеристика знойности погоды. Зависит от высоты солнца над горизонтом, облачности и скорости ветра. Ночью, в пасмурную погоду, а также при ветре 12 м/с и более поправка равна нулю.
P - Атмосферное давление - приведенное к уровню моря атмосферное давление.
Po - Атмосферное давление - измеренное на уровне метеостанции атмосферное давление.
Tmin - Минимальная температура - минимум температуры воздуха на высоте 2 м над землей.
Tmax - Максимальная температура - максимум температуры воздуха на высоте 2 м над землей.
R - Количество осадков - Количество выпавших осадков за период времени, мм. При наведении курсора мыши на число - период времени, за который выпало указанное количество осадков.
R24 - Количество осадков - Количество выпавших осадков за 24 часа, мм.
S - Снежный покров - Высота снежного покрова, см. При наведении курсора мыши на число - состояние снежного покрова и степень покрытия местности в баллах.